Location: Liberec
(50.7830°N, 15.0500°E)
Time: 07:31:26
(UTC+01:00)

ISS - Visible Passes

Search period start: 04 December 2023 00:00
Search period end: 14 December 2023 00:00
Orbit: 415 x 417 km, 51.6° (Epoch: 04 December)

Date Brightness Start Highest point End Pass type
(mag) Time Alt. Az. Time Alt. Az. Time Alt. Az.
04 Dec -1.6 17:29:26 10° W 17:32:19 26° SSW 17:35:10 10° SSE visible
05 Dec -2.2 16:40:43 10° W 16:43:51 37° SSW 16:46:59 10° SE visible
06 Dec -0.6 17:29:48 10° WSW 17:31:29 13° SW 17:33:09 10° SSW visible
07 Dec -0.8 16:40:32 10° W 16:43:02 20° SW 16:45:32 10° S visible
